Hourly Data Report for August 25, 2021

TORONTO CITY
ONTARIO
Current Station Operator: ECCC - MSC

43°40'00.000" N
79°24'00.000" W
112.50 m
6158355
71508
XTO

Download Data

Hourly Data (August 2021)
Hourly Data Report for August 25, 2021
TIME
LST
Temp Definition
°C
Dew Point Definition
°C
Rel Hum Definition
%
Precip. Amount Definition
mm

Wind Dir Definition
10's deg

Wind Spd Definition
km/h
Visibility Definition
km
Stn Press Definition
kPa
Hmdx Definition


Wind Chill Definition


Weather Definition


00:00 24.2 19.2 73 0.0       100.28 31   LegendNANA
01:00 23.6 19.5 78 0.0       100.29 31   LegendNANA
02:00 23.6 19.5 78 0.0       100.26 31   LegendNANA
03:00 23.1 19.5 80 0.0       100.31 30   LegendNANA
04:00 23.3 20.7 85 0.0       100.35 31   LegendNANA
05:00 24.0 21.9 88 0.0       100.37 33   LegendNANA
06:00 23.8 21.5 87 0.0       100.40 33   LegendNANA
07:00 24.6 21.6 83 0.0       100.39 34   LegendNANA
08:00 26.6 20.9 71 0.0       100.43 35   LegendNANA
09:00 28.1 21.0 65 0.0       100.45 37   LegendNANA
10:00 28.7 21.1 63 0.0       100.51 37   LegendNANA
11:00 27.7 22.7 74 0.0       100.52 38   LegendNANA
12:00 29.4 22.2 65 0.0       100.43 39   LegendNANA
13:00 29.6 21.7 63 0.0       100.38 39   LegendNANA
14:00 28.2 21.6 67 0.0       100.42 37   LegendNANA
15:00 28.4 22.0 68 0.0       100.39 38   LegendNANA
16:00 28.9 22.2 67 0.0       100.38 38   LegendNANA
17:00 28.6 22.4 69 0.0       100.38 38   LegendNANA
18:00 27.7 22.3 73 0.0       100.36 37   LegendNANA
19:00 27.8 21.2 67 0.0       100.35 36   LegendNANA
20:00 26.9 21.0 70 0.0       100.36 35   LegendNANA
21:00 26.5 21.2 73 0.0       100.41 35   LegendNANA
22:00 25.9 21.1 75 0.0       100.43 34   LegendNANA
23:00 25.7 21.3 77 0.0       100.47 34   LegendNANA

Notes on Data Quality.

Legend

  • E = Estimated
  • M = Missing
  • NA = Not Available*
  • [empty] = Indicates an unobserved value
Date modified: